Date String (YYYY-MM-DD hh:mm:ss) UTC,Instrument flags,Ambient pressure (hPa),Sample flow (lpm),Bypass flow (lpm),Sample temperature (°C),Ambient temperature (°C),ASC tube jacket temperature (°C),LED temperature (°C),Box temperature (°C),Sample RH (%),Span deviation,Mass concentration (μg/m³),Mass concentration (μg/m³),Mass concentration (μg/m³)
DateTimeUTC,F1_M11,P_M11,Q1_M11,Q2_M11,T1_M11,T2_M11,T3_M11,T4_M11,T5_M11,U1_M11,ZSPAN_M11,X0_M11,X2_M11,X1_M11
2022-07-04 21:00:00,,0825.7,5.00,0.00,29.1,27.6,00.0,37.8,31.0,21.7,0000.0,0009.07,0003.07,0002.21
2022-07-04 21:01:00,,0825.7,5.01,0.00,29.1,27.8,00.0,37.8,31.1,22.7,0000.0,0008.95,0003.04,0002.19
2022-07-04 21:02:00,,0825.6,4.99,0.00,29.2,28.0,00.0,37.9,31.2,22.3,0000.0,0008.35,0002.94,0002.15
2022-07-04 21:03:00,,0825.6,5.00,0.00,29.2,28.2,00.0,37.9,31.3,20.5,0000.0,0007.70,0002.85,0002.13
2022-07-04 21:04:00,,0825.6,5.00,0.00,29.3,28.2,00.0,37.9,31.3,20.7,0000.0,0007.61,0002.82,0002.10
2022-07-04 21:05:00,,0825.6,4.99,0.00,29.3,27.5,00.0,37.8,31.2,20.7,0000.0,0007.58,0002.83,0002.09
2022-07-04 21:06:00,,0825.5,5.01,0.00,29.2,27.1,00.0,37.8,31.1,20.7,0000.0,0007.53,0002.84,0002.05
2022-07-04 21:07:00,,0825.6,5.00,0.00,29.2,27.1,00.0,37.8,31.0,20.5,0000.0,0007.38,0002.79,0002.01
2022-07-04 21:08:00,,0825.6,5.00,0.00,29.1,27.2,00.0,37.8,31.0,20.3,0000.0,0007.32,0002.74,0001.98
2022-07-04 21:09:00,,0825.5,4.99,0.00,29.1,27.4,00.0,37.8,31.0,20.4,0000.0,0005.80,0002.67,0001.94
2022-07-04 21:10:00,,0825.6,5.00,0.00,29.2,27.6,00.0,37.9,31.1,20.1,0000.0,0004.69,0002.67,0001.92
2022-07-04 21:11:00,,0825.6,5.00,0.00,29.2,27.8,00.0,37.9,31.1,20.0,0000.0,0004.51,0002.62,0001.90
2022-07-04 21:12:00,,0825.5,5.01,0.00,29.2,28.0,00.0,37.9,31.2,20.0,0000.0,0004.65,0002.67,0001.90
2022-07-04 21:13:00,,0825.5,5.00,0.00,29.3,28.2,00.0,37.9,31.3,19.8,0000.0,0004.62,0002.66,0001.88
2022-07-04 21:14:00,,0825.5,5.00,0.00,29.3,27.9,00.0,37.9,31.3,20.4,0000.0,0004.56,0002.64,0001.87
2022-07-04 21:15:00,,0825.5,5.00,0.00,29.3,27.2,00.0,37.9,31.1,20.6,0000.0,0004.52,0002.66,0001.87
2022-07-04 21:16:00,,0825.5,5.01,0.00,29.2,27.0,00.0,37.8,31.1,20.4,0000.0,0004.48,0002.64,0001.84
2022-07-04 21:17:00,,0825.5,4.99,0.00,29.2,27.1,00.0,37.8,31.0,20.4,0000.0,0004.47,0002.65,0001.85
2022-07-04 21:18:00,,0825.6,5.01,0.00,29.1,27.2,00.0,37.9,31.0,20.8,0000.0,0004.40,0002.63,0001.86
2022-07-04 21:19:00,,0825.5,4.99,0.00,29.1,27.4,00.0,37.9,31.0,20.7,0000.0,0004.52,0002.68,0001.86
2022-07-04 21:20:00,,0825.5,4.99,0.00,29.2,27.6,00.0,37.9,31.1,21.0,0000.0,0004.42,0002.66,0001.87
2022-07-04 21:21:00,,0825.5,5.00,0.00,29.2,27.8,00.0,37.9,31.1,20.8,0000.0,0004.19,0002.62,0001.87
2022-07-04 21:22:00,,0825.5,5.00,0.00,29.2,28.0,00.0,37.9,31.2,20.5,0000.0,0004.41,0002.65,0001.87
2022-07-04 21:23:00,,0825.5,5.00,0.00,29.3,28.1,00.0,37.9,31.3,20.6,0000.0,0004.55,0002.62,0001.86
2022-07-04 21:24:00,,0825.5,5.00,0.00,29.3,27.5,00.0,37.9,31.2,21.0,0000.0,0004.53,0002.66,0001.87
2022-07-04 21:25:00,,0825.5,5.00,0.00,29.2,27.0,00.0,37.8,31.0,20.8,0000.0,0004.50,0002.66,0001.87
2022-07-04 21:26:00,,0825.4,5.00,0.00,29.2,26.9,00.0,37.8,31.0,20.3,0000.0,0004.39,0002.61,0001.86
2022-07-04 21:27:00,,0825.5,5.01,0.00,29.1,27.1,00.0,37.8,30.9,20.1,0000.0,0004.36,0002.60,0001.87
2022-07-04 21:28:00,,0825.4,5.00,0.00,29.1,27.2,00.0,37.8,31.0,19.7,0000.0,0004.39,0002.55,0001.86
2022-07-04 21:29:00,,0825.4,5.01,0.00,29.1,27.5,00.0,37.9,31.0,19.4,0000.0,0004.50,0002.54,0001.86
2022-07-04 21:30:00,,0825.5,5.00,0.00,29.1,27.7,00.0,37.9,31.1,19.2,0000.0,0004.43,0002.51,0001.85
2022-07-04 21:31:00,,0825.5,5.00,0.00,29.2,27.9,00.0,37.9,31.1,19.3,0000.0,0004.51,0002.52,0001.83
2022-07-04 21:32:00,,0825.4,5.00,0.00,29.2,28.1,00.0,37.9,31.2,19.4,0000.0,0004.51,0002.53,0001.83
2022-07-04 21:33:00,,0825.4,5.00,0.00,29.3,28.2,00.0,37.9,31.3,19.5,0000.0,0004.33,0002.49,0001.82
2022-07-04 21:34:00,,0825.4,5.00,0.00,29.3,27.7,00.0,37.9,31.2,19.6,0000.0,0004.00,0002.46,0001.82
2022-07-04 21:35:00,,0825.4,5.00,0.00,29.2,27.1,00.0,37.8,31.1,19.3,0000.0,0003.94,0002.44,0001.84
2022-07-04 21:36:00,,0825.4,5.00,0.00,29.2,27.0,00.0,37.8,31.0,19.3,0000.0,0004.10,0002.47,0001.85
2022-07-04 21:37:00,,0825.4,5.00,0.00,29.1,27.1,00.0,37.8,31.0,19.8,0000.0,0004.37,0002.54,0001.87
2022-07-04 21:38:00,,0825.4,5.00,0.00,29.1,27.3,00.0,37.9,31.0,19.7,0000.0,0004.39,0002.54,0001.89
2022-07-04 21:39:00,,0825.4,5.01,0.00,29.1,27.5,00.0,37.9,31.0,19.5,0000.0,0004.35,0002.51,0001.89
2022-07-04 21:40:00,,0825.4,5.00,0.00,29.2,27.7,00.0,37.9,31.1,19.4,0000.0,0004.74,0002.50,0001.89
2022-07-04 21:41:00,,0825.3,5.00,0.00,29.2,27.9,00.0,37.9,31.1,19.3,0000.0,0005.10,0002.51,0001.89
2022-07-04 21:42:00,,0825.3,5.00,0.00,29.2,28.1,00.0,37.9,31.2,19.2,0000.0,0005.64,0002.47,0001.90
2022-07-04 21:43:00,,0825.3,4.99,0.00,29.3,28.2,00.0,37.9,31.3,19.2,0000.0,0005.71,0002.48,0001.90
2022-07-04 21:44:00,,0825.3,5.00,0.00,29.3,27.8,00.0,37.9,31.3,19.3,0000.0,0005.78,0002.50,0001.92
2022-07-04 21:45:00,,0825.3,5.01,0.00,29.3,27.2,00.0,37.9,31.1,19.3,0000.0,0005.94,0002.52,0001.92
2022-07-04 21:46:00,,0825.3,4.99,0.00,29.2,27.0,00.0,37.8,31.1,19.5,0000.0,0007.01,0002.52,0001.92
2022-07-04 21:47:00,,0825.4,5.00,0.00,29.2,27.1,00.0,37.9,31.0,19.8,0000.0,0006.96,0002.49,0001.88
2022-07-04 21:48:00,,0825.3,5.00,0.00,29.1,27.3,00.0,37.9,31.0,19.6,0000.0,0006.74,0002.45,0001.86
2022-07-04 21:49:00,,0825.3,5.01,0.00,29.2,27.5,00.0,37.9,31.0,19.6,0000.0,0006.75,0002.45,0001.83
2022-07-04 21:50:00,,0825.3,4.99,0.00,29.2,27.7,00.0,37.9,31.1,19.8,0000.0,0007.27,0002.50,0001.83
2022-07-04 21:51:00,,0825.3,5.00,0.00,29.2,27.9,00.0,37.9,31.2,19.9,0000.0,0007.10,0002.55,0001.85
2022-07-04 21:52:00,,0825.4,4.99,0.00,29.2,28.1,00.0,37.9,31.2,19.9,0000.0,0006.69,0002.57,0001.86
2022-07-04 21:53:00,,0825.3,5.00,0.00,29.3,28.2,00.0,37.9,31.3,19.9,0000.0,0006.11,0002.60,0001.86
2022-07-04 21:54:00,,0825.3,5.00,0.00,29.3,27.9,00.0,37.9,31.3,19.8,0000.0,0006.11,0002.62,0001.86
2022-07-04 21:55:00,,0825.3,5.01,0.00,29.3,27.2,00.0,37.9,31.1,19.8,0000.0,0006.06,0002.61,0001.85
2022-07-04 21:56:00,,0825.3,5.00,0.00,29.2,27.0,00.0,37.8,31.1,19.7,0000.0,0005.96,0002.62,0001.85
2022-07-04 21:57:00,,0825.3,5.00,0.00,29.2,27.1,00.0,37.9,31.0,20.0,0000.0,0005.09,0002.67,0001.85
2022-07-04 21:58:00,,0825.3,4.99,0.00,29.2,27.2,00.0,37.9,31.0,20.1,0000.0,0005.20,0002.71,0001.85
2022-07-04 21:59:00,,0825.3,5.00,0.00,29.2,27.4,00.0,37.9,31.0,20.3,0000.0,0005.12,0002.67,0001.85
